Nasa Shuttle, FL

7:03 PM EDT on August 21, 2017 (GMT -0400)
Nasa Shuttle

Weather History for KTTS - August, 2013

Change the Weather History Date:

Sunday, August 11, 2013

  Actual Average Record
Temperature  
Mean Temperature 80 °F -  
Max Temperature 91 °F 86 °F 95 °F (2006)
Min Temperature 71 °F 71 °F 71 °F (2001)
Cooling Degree Days 16    
Growing Degree Days 30 (Base 50)    
Moisture  
Dew Point 75 °F    
Average Humidity 88    
Maximum Humidity 100    
Minimum Humidity 56    
Precipitation  
Precipitation 0.00 in - - ()
Sea Level Pressure  
Sea Level Pressure 30.14 in    
Wind  
Wind Speed 3 mph (SE)    
Max Wind Speed 13 mph    
Max Gust Speed -    
Visibility 7 miles    
Events Fog    
Averages and records for this station are not official NWS values.
T = Trace of Precipitation, MM = Missing Value Source: NWS Daily Summary

Daily Weather History Graph

Daily Weather History Graph

Search for Another Location

Airport or City:

Trip Planner

Search our weather history database for the weather conditions in past years. The results will help you decide how hot, cold, wet, or windy it might be!

Date:

Astronomy

Aug. 11, 2013 Rise Set
Actual Time 6:50 AM EDT 8:05 PM EDT
Civil Twilight 6:25 AM EDT 8:30 PM EDT
Nautical Twilight 5:55 AM EDT 9:00 PM EDT
Astronomical Twilight 5:24 AM EDT 9:30 PM EDT
Moon 11:07 AM EDT (8/11) 10:51 PM EDT (8/11)
Length of Visible Light 14h 05m
Length of Day
13h 15m
Waxing Crescent, 22% of the Moon is Illuminated
Aug 11
Waxing Crescent
Aug 14
First Quarter
Aug 20
Full
Aug 28
Last Quarter
Sep 5
New

Hourly Weather History & Observations

Time (EDT) Temp. Heat Index Dew Point Humidity Pressure Visibility Wind Dir Wind Speed Gust Speed Precip Events Conditions
12:58 AM 76.6 °F - 75.7 °F 97% 30.16 in 10.0 mi East 3.5 mph - N/A   Clear
1:58 AM 78.3 °F - 77.9 °F 99% 30.15 in 9.0 mi ESE 2.3 mph - N/A   Clear
2:33 AM 78.8 °F - 77.0 °F 94% 30.14 in 2.0 mi Calm Calm - N/A   Clear
2:43 AM 77.0 °F - 77.0 °F 100% 30.13 in 6.0 mi Calm Calm - N/A   Clear
2:58 AM 77.2 °F - 76.1 °F 96% 30.14 in 7.0 mi Calm Calm - N/A   Clear
3:13 AM 77.0 °F - 77.0 °F 100% 30.13 in 2.5 mi Calm Calm - N/A   Clear
3:18 AM 77.0 °F - 77.0 °F 100% 30.13 in 4.0 mi Calm Calm - N/A   Clear
3:58 AM 77.0 °F - 77.0 °F 100% 30.13 in 2.5 mi Calm Calm - N/A   Clear
4:03 AM 77.0 °F - 77.0 °F 100% 30.12 in 1.5 mi Calm Calm - N/A   Clear
4:23 AM 77.0 °F - 77.0 °F 100% 30.12 in 3.0 mi Calm Calm - N/A   Clear
4:43 AM 73.4 °F - 73.4 °F 100% 30.12 in 2.5 mi Calm Calm - N/A   Clear
4:58 AM 73.4 °F - 73.4 °F 100% 30.13 in 3.0 mi Calm Calm - N/A   Clear
5:13 AM 73.4 °F - 73.4 °F 100% 30.12 in 2.5 mi NE 2.3 mph - N/A   Clear
5:18 AM 73.4 °F - 73.4 °F 100% 30.12 in 1.5 mi ENE 2.3 mph - N/A   Clear
5:23 AM 73.4 °F - 73.4 °F 100% 30.13 in 1.0 mi ENE 3.5 mph - N/A   Clear
5:28 AM 73.4 °F - 73.4 °F 100% 30.13 in 1.2 mi East 2.3 mph - N/A   Clear
5:33 AM 73.4 °F - 73.4 °F 100% 30.13 in 2.0 mi East 2.3 mph - N/A   Clear
5:48 AM 73.4 °F - 73.4 °F 100% 30.13 in 6.0 mi Calm Calm - N/A   Clear
5:58 AM 73.2 °F - 73.2 °F 100% 30.15 in 8.0 mi Variable 1.2 mph - N/A   Clear
6:33 AM 71.6 °F - 71.6 °F 100% 30.14 in 2.5 mi Calm Calm - N/A   Clear
6:38 AM 71.6 °F - 71.6 °F 100% 30.14 in 1.0 mi Calm Calm - N/A   Clear
6:43 AM 73.4 °F - 73.4 °F 100% 30.14 in 0.5 mi Calm Calm - N/A Fog Fog
6:58 AM 73.2 °F - 73.2 °F 100% 30.15 in 0.2 mi Calm Calm - N/A Fog Fog
7:13 AM 73.4 °F - 73.4 °F 100% 30.14 in 5.0 mi South 2.3 mph - N/A   Clear
7:24 AM 75.2 °F - 75.2 °F 100% 30.14 in 10.0 mi South 1.2 mph - N/A   Light Drizzle
7:34 AM 75.2 °F - 75.2 °F 100% 30.14 in 10.0 mi SSE 1.2 mph - N/A   Clear
7:58 AM 77.4 °F - 77.4 °F 100% 30.16 in 10.0 mi SSE 1.2 mph - 0.00 in   Clear
8:58 AM 82.6 °F 95.0 °F 81.1 °F 95% 30.17 in 10.0 mi SSE 5.8 mph - N/A   Clear
9:28 AM 84.2 °F 94.1 °F 77.0 °F 79% 30.17 in 10.0 mi ESE 4.6 mph - N/A   Mostly Cloudy
9:33 AM 84.2 °F 94.1 °F 77.0 °F 79% 30.17 in 10.0 mi SSE 4.6 mph - N/A   Scattered Clouds
9:38 AM 84.2 °F 94.1 °F 77.0 °F 79% 30.16 in 10.0 mi South 6.9 mph - N/A   Scattered Clouds
9:43 AM 84.2 °F 94.1 °F 77.0 °F 79% 30.16 in 10.0 mi South 6.9 mph - N/A   Mostly Cloudy
9:48 AM 84.2 °F 92.3 °F 75.2 °F 74% 30.16 in 10.0 mi SSW 4.6 mph - N/A   Scattered Clouds
9:58 AM 84.0 °F 91.2 °F 74.1 °F 72% 30.18 in 10.0 mi South 8.1 mph - N/A   Partly Cloudy
10:58 AM 87.6 °F 95.7 °F 73.8 °F 63% 30.18 in 10.0 mi Variable 4.6 mph - N/A   Clear
11:58 AM 89.4 °F 98.3 °F 73.9 °F 60% 30.18 in 10.0 mi SSE 3.5 mph - N/A   Partly Cloudy
12:58 PM 90.9 °F 99.4 °F 73.4 °F 56% 30.17 in 10.0 mi South 4.6 mph - N/A   Scattered Clouds
1:58 PM 90.0 °F 101.9 °F 76.1 °F 64% 30.17 in 10.0 mi ESE 9.2 mph - N/A   Mostly Cloudy
2:58 PM 89.4 °F 99.4 °F 74.7 °F 62% 30.15 in 10.0 mi ESE 10.4 mph - N/A   Partly Cloudy
3:58 PM 89.8 °F 99.7 °F 74.5 °F 61% 30.13 in 10.0 mi ESE 12.7 mph - N/A   Clear
4:58 PM 88.5 °F 97.3 °F 74.1 °F 62% 30.12 in 10.0 mi ESE 10.4 mph - N/A   Clear
5:58 PM 87.3 °F 95.8 °F 74.3 °F 65% 30.12 in 10.0 mi ESE 9.2 mph - N/A   Clear
6:58 PM 85.3 °F 93.4 °F 74.5 °F 70% 30.11 in 10.0 mi ESE 5.8 mph - N/A   Clear
7:58 PM 82.0 °F 88.4 °F 74.7 °F 78% 30.12 in 10.0 mi ESE 4.6 mph - N/A   Clear
8:58 PM 80.4 °F 85.3 °F 74.1 °F 81% 30.12 in 10.0 mi SE 4.6 mph - N/A   Clear
9:58 PM 79.0 °F - 74.3 °F 85% 30.13 in 10.0 mi SE 4.6 mph - N/A   Clear
10:58 PM 77.5 °F - 74.1 °F 89% 30.15 in 10.0 mi SSE 3.5 mph - N/A   Clear
11:58 PM 77.5 °F - 74.1 °F 89% 30.15 in 10.0 mi South 3.5 mph - N/A   Clear